| time (UTC) | temp F | wind direction | speed knots | gust knots | rain 1hr in | rain 24hr in | rain mn in | humidity % | barometer mb |
| 20260503020015 | 65 | 285 | 0.9 | 1.7 | 0.00 | 0.00 | 0.00 | 32 | 1015.8 |
| 20260503014504 | 65 | 285 | 0.0 | 1.7 | 0.00 | 0.00 | 0.00 | 32 | 1015.9 |
| 20260503013008 | 64 | 285 | 0.0 | 1.7 | 0.00 | 0.00 | 0.00 | 33 | 1015.8 |
| 20260503011515 | 65 | 285 | 0.0 | 1.7 | 0.00 | 0.00 | 0.00 | 32 | 1016.0 |
| 20260503010018 | 68 | 253 | 1.7 | 4.3 | 0.00 | 0.00 | 0.00 | 31 | 1016.1 |
| 20260503004522 | 66 | 161 | 0.0 | 3.5 | 0.00 | 0.00 | 0.00 | 32 | 1016.2 |
| 20260503003012 | 65 | 158 | 0.0 | 3.5 | 0.00 | 0.00 | 0.00 | 33 | 1016.4 |
| 20260503001512 | 65 | 160 | 0.0 | 1.7 | 0.00 | 0.00 | 0.00 | 33 | 1016.5 |
| 20260503000015 | 65 | 160 | 0.0 | 2.6 | 0.00 | 0.00 | 0.00 | 33 | 1016.6 |
| 20260502234521 | 65 | 150 | 1.7 | 7.0 | 0.00 | 0.00 | 0.00 | 33 | 1016.8 |
| 20260502233020 | 66 | 24 | 0.9 | 3.5 | 0.00 | 0.00 | 0.00 | 32 | 1016.9 |
| 20260502231514 | 66 | 70 | 3.5 | 7.0 | 0.00 | 0.00 | 0.00 | 32 | 1017.0 |
| 20260502230013 | 67 | 98 | 1.7 | 9.6 | 0.00 | 0.00 | 0.00 | 33 | 1017.3 |
| 20260502224531 | 67 | 60 | 0.0 | 5.2 | 0.00 | 0.00 | 0.00 | 32 | 1017.5 |
| 20260502223022 | 66 | 76 | 0.9 | 2.6 | 0.00 | 0.00 | 0.00 | 31 | 1017.6 |
| 20260502221524 | 66 | 61 | 0.9 | 3.5 | 0.00 | 0.00 | 0.00 | 32 | 1017.8 |
| 20260502220017 | 66 | 278 | 1.7 | 3.5 | 0.00 | 0.00 | 0.00 | 32 | 1018.1 |
| 20260502214517 | 67 | 322 | 0.0 | 4.3 | 0.00 | 0.00 | 0.00 | 32 | 1018.2 |
| 20260502213024 | 67 | 130 | 0.0 | 2.6 | 0.00 | 0.00 | 0.00 | 32 | 1018.4 |
| 20260502211524 | 65 | 127 | 0.9 | 2.6 | 0.00 | 0.00 | 0.00 | 33 | 1018.6 |
| 20260502210010 | 65 | 266 | 1.7 | 5.2 | 0.00 | 0.00 | 0.00 | 34 | 1018.8 |
| 20260502204527 | 66 | 27 | 2.6 | 5.2 | 0.00 | 0.00 | 0.00 | 1018.9 | |
| 20260502203021 | 65 | 356 | 1.7 | 5.2 | 0.00 | 0.00 | 0.00 | 32 | 1019.1 |
| 20260502201527 | 67 | 169 | 1.7 | 6.1 | 0.00 | 0.00 | 0.00 | 33 | 1019.3 |
| 20260502200045 | 65 | 293 | 1.7 | 5.2 | 0.00 | 0.00 | 0.00 | 34 | 1019.4 |
| 20260502194514 | 64 | 5 | 1.7 | 9.6 | 0.00 | 0.00 | 0.00 | 35 | 1019.5 |
| 20260502193024 | 64 | 286 | 0.9 | 4.3 | 0.00 | 0.00 | 0.00 | 36 | 1019.7 |
| 20260502191524 | 64 | 269 | 1.7 | 4.3 | 0.00 | 0.00 | 0.00 | 35 | 1019.8 |
| 20260502190008 | 64 | 259 | 3.5 | 6.1 | 0.00 | 0.00 | 0.00 | 35 | 1019.9 |
| 20260502184519 | 63 | 327 | 3.5 | 7.0 | 0.00 | 0.00 | 0.00 | 37 | 1020.1 |
| 20260502183020 | 63 | 26 | 1.7 | 3.5 | 0.00 | 0.00 | 0.00 | 37 | 1020.2 |
| 20260502181509 | 64 | 40 | 1.7 | 4.3 | 0.00 | 0.00 | 0.00 | 35 | 1020.3 |
| 20260502163019 | 59 | 233 | 1.7 | 3.5 | 0.00 | 0.00 | 0.00 | 42 | 1020.9 |
| 20260502161518 | 58 | 314 | 2.6 | 6.1 | 0.00 | 0.00 | 0.00 | 43 | 1021.0 |
| 20260502151518 | 55 | 285 | 2.6 | 5.2 | 0.00 | 0.00 | 0.00 | 50 | 1020.9 |
| 20260502123030 | 46 | 19 | 0.9 | 2.6 | 0.00 | 0.00 | 0.00 | 54 | 1019.8 |
| 20260502121512 | 44 | 1 | 0.0 | 3.5 | 0.00 | 0.00 | 0.00 | 57 | 1019.5 |
| 20260502114526 | 43 | 331 | 0.9 | 3.5 | 0.00 | 0.00 | 0.00 | 56 | 1019.3 |
| 20260502113026 | 43 | 282 | 1.7 | 4.3 | 0.00 | 0.00 | 0.00 | 55 | 1019.2 |
| 20260502111527 | 44 | 275 | 0.9 | 4.3 | 0.00 | 0.00 | 0.00 | 55 | 1018.8 |
| 20260502110019 | 45 | 309 | 0.9 | 1.7 | 0.00 | 0.00 | 0.00 | 53 | 1018.3 |
| 20260502104522 | 46 | 297 | 0.9 | 3.5 | 0.00 | 0.00 | 0.00 | 52 | 1018.1 |
| 20260502103053 | 46 | 295 | 0.9 | 3.5 | 0.00 | 0.00 | 0.00 | 51 | 1017.8 |
| 20260502101544 | 46 | 350 | 1.7 | 3.5 | 0.00 | 0.00 | 0.00 | 51 | 1017.9 |
| 20260502091508 | 48 | 274 | 0.9 | 1.7 | 0.00 | 0.00 | 0.00 | 45 | 1017.0 |
| 20260502071526 | 48 | 346 | 0.9 | 2.6 | 0.00 | 0.00 | 0.00 | 39 | 1016.8 |
| 20260502070014 | 49 | 295 | 0.9 | 1.7 | 0.00 | 0.00 | 0.00 | 38 | 1016.6 |
| 20260502064514 | 51 | 321 | 0.9 | 2.6 | 0.00 | 0.00 | 0.00 | 36 | 1016.6 |
| 20260502063018 | 50 | 330 | 0.9 | 2.6 | 0.00 | 0.00 | 0.00 | 36 | 1016.6 |
| 20260502061525 | 50 | 342 | 0.9 | 1.7 | 0.00 | 0.00 | 0.00 | 38 | 1016.6 |
| 20260502060026 | 49 | 337 | 0.9 | 2.6 | 0.00 | 0.00 | 0.00 | 37 | 1016.5 |
| 20260502054512 | 50 | 11 | 1.7 | 5.2 | 0.00 | 0.00 | 0.00 | 35 | 1016.5 |
| 20260502053018 | 52 | 274 | 0.9 | 3.5 | 0.00 | 0.00 | 0.00 | 33 | 1016.1 |
| 20260502051523 | 54 | 282 | 1.7 | 4.3 | 0.00 | 0.00 | 0.00 | 32 | 1016.1 |
| 20260502050027 | 54 | 267 | 3.5 | 5.2 | 0.00 | 0.00 | 0.00 | 32 | 1016.0 |
| 20260502044528 | 53 | 272 | 2.6 | 4.3 | 0.00 | 0.00 | 0.00 | 31 | 1016.0 |
| 20260502043020 | 56 | 311 | 1.7 | 4.3 | 0.00 | 0.00 | 0.00 | 29 | 1015.9 |
| 20260502041520 | 57 | 335 | 1.7 | 5.2 | 0.00 | 0.00 | 0.00 | 28 | 1015.8 |
| 20260502040022 | 58 | 269 | 3.5 | 7.0 | 0.00 | 0.00 | 0.00 | 27 | 1015.8 |
| 20260502034526 | 58 | 255 | 6.1 | 7.8 | 0.00 | 0.00 | 0.00 | 26 | 1015.7 |
| 20260502033038 | 58 | 261 | 3.5 | 6.1 | 0.00 | 0.00 | 0.00 | 24 | 1015.6 |
| 20260502031518 | 60 | 269 | 5.2 | 7.0 | 0.00 | 0.00 | 0.00 | 23 | 1015.5 |
| 20260502030024 | 61 | 276 | 5.2 | 7.0 | 0.00 | 0.00 | 0.00 | 21 | 1015.4 |
| 20260502024523 | 63 | 274 | 2.6 | 3.5 | 0.00 | 0.00 | 0.00 | 19 | 1015.1 |
| 20260502023025 | 66 | 272 | 3.5 | 6.1 | 0.00 | 0.00 | 0.00 | 17 | 1015.0 |
| 20260502021518 | 68 | 295 | 3.5 | 6.1 | 0.00 | 0.00 | 0.00 | 16 | 1014.9 |